FW1831 Weather Reports


time (UTC)temp
F
wind
direction
speed
knots
gust
knots
rain 1hr
in
rain 24hr
in
rain mn
in
humidity
%
barometer
mb
20260507040013 42 5 0.0 0.0 0.00 0.19 0.00 84 1011.6
20260507034516 43 243 0.0 1.7 0.00 0.20 0.00 84 1011.6
20260507033010 43 314 0.0 3.5 0.00 0.20 0.00 84 1011.7
20260507031509 43 251 0.0 1.7 0.00 0.20 0.00 85 1011.8
20260507030006 43 284 0.9 2.6 0.00 0.20 0.00 85 1011.9
20260507024506 43 277 0.0 1.7 0.00 0.20 0.00 85 1011.9
20260507023005 43 262 0.0 3.5 0.00 0.20 0.00 85 1011.9
20260507021504 43 256 0.0 5.2 0.00 0.20 0.00 86 1011.8
20260507020002 43 259 0.9 1.7 0.00 0.21 0.00 86 1011.6
20260507014608 43 5 0.0 0.0 0.00 0.21 0.00 84 1011.6
20260507013057 44 5 0.0 0.0 0.00 0.21 0.00 83 1011.4
20260507011554 44 5 0.0 1.7 0.00 0.21 0.00 81 1011.0
20260507010051 45 91 0.0 1.7 0.00 0.21 0.00 79 1010.9
20260507004547 47 281 0.0 1.7 0.00 0.22 0.00 77 1010.7
20260507003046 48 290 0.9 3.5 0.00 0.22 0.00 75 1010.7
20260507001547 49 243 0.0 2.6 0.00 0.22 0.00 73 1010.6
20260507000044 47 220 0.0 2.6 0.00 0.22 0.00 76 1010.7
20260506234550 47 124 0.0 2.6 0.00 0.23 0.00 77 1010.7
20260506233043 47 16 0.0 2.6 0.00 0.23 0.00 80 1010.7
20260506231550 47 251 0.0 0.9 0.00 0.23 0.00 79 1010.8
20260506230051 47 7 0.0 0.9 0.00 0.23 0.00 78 1010.9
20260506224539 48 90 0.0 1.7 0.00 0.23 0.00 77 1010.9
20260506223048 48 352 0.0 1.7 0.00 0.23 0.00 78 1010.7
20260506221532 49 252 0.0 0.9 0.00 0.23 0.00 74 1010.7
20260506220030 50 360 0.9 2.6 0.00 0.23 0.00 73 1010.6
20260506214526 51 27 0.0 1.7 0.00 0.23 0.23 71 1010.4
20260506213028 51 266 0.0 1.7 0.00 0.23 0.23 73 1010.4
20260506211532 51 276 0.0 1.7 0.00 0.23 0.23 72 1010.4
20260506210030 53 359 0.0 0.9 0.00 0.23 0.23 66 1010.4
20260506204524 54 4 0.0 1.7 0.00 0.23 0.23 62 1010.2
20260506203028 57 214 0.0 2.6 0.00 0.23 0.23 53 1009.8
20260506201532 59 253 2.6 7.8 0.00 0.23 0.23 45 1009.5
20260506200022 58 255 0.9 4.3 0.00 0.23 0.23 49 1009.1
20260506194527 59 231 1.7 5.2 0.00 0.23 0.23 46 1008.9
20260506193020 60 250 2.6 10.4 0.00 0.23 0.23 45 1008.4
20260506191519 60 225 3.5 10.4 0.00 0.23 0.23 45 1008.2
20260506190019 60 250 3.5 10.4 0.00 0.23 0.23 45 1008.2
20260506184518 61 288 0.9 12.2 0.00 0.23 0.23 45 1007.8
20260506183027 61 269 3.5 9.6 0.00 0.23 0.23 43 1007.6
20260506181516 61 252 3.5 7.0 0.00 0.23 0.23 45 1007.2
20260506180016 61 265 2.6 11.3 0.00 0.23 0.23 45 1006.9
20260506174515 62 270 2.6 13.0 0.00 0.23 0.23 43 1006.8
20260506173015 62 262 2.6 12.2 0.00 0.23 0.23 43 1006.7
20260506171520 62 224 1.7 19.1 0.00 0.23 0.23 43 1006.6
20260506170012 62 276 6.1 15.6 0.00 0.23 0.23 43 1006.3
20260506164512 64 233 1.7 16.5 0.00 0.24 0.23 44 1006.0
20260506163014 64 246 5.2 20.0 0.00 0.24 0.23 43 1006.0
20260506161510 66 245 9.6 19.1 0.00 0.24 0.23 42 1005.5
20260506160010 68 86 1.7 7.0 0.00 0.24 0.23 51 1005.4
20260506154508 69 224 1.7 5.2 0.00 0.24 0.23 40 1005.4
20260506153010 67 97 2.6 6.1 0.00 0.24 0.23 48 1005.4
20260506151506 70 103 1.7 5.2 0.00 0.24 0.23 39 1005.4
20260506150004 68 245 1.7 5.2 0.00 0.24 0.23 42 1005.6
20260506144501 67 261 2.6 6.1 0.00 0.24 0.23 41 1005.5
20260506143109 65 262 6.1 14.8 0.00 0.24 0.23 45 1005.7
20260506141559 65 287 7.0 17.4 0.00 0.24 0.23 43 1006.3
20260506140104 64 240 7.0 13.0 0.00 0.24 0.23 44 1006.3
20260506134559 67 252 2.6 12.2 0.00 0.24 0.23 45 1005.9
20260506133058 68 269 4.3 11.3 0.00 0.24 0.23 46 1005.8
20260506131556 68 240 1.7 5.2 0.00 0.24 0.23 51 1006.0
20260506130100 68 274 1.7 6.1 0.00 0.24 0.23 51 1006.3
20260506124552 66 143 2.6 8.7 0.00 0.24 0.23 63 1006.1
20260506123051 64 266 3.5 16.5 0.00 0.24 0.23 47 1006.3
20260506121553 62 259 4.3 14.8 0.00 0.24 0.23 52 1006.0
20260506120049 64 295 8.7 14.8 0.00 0.24 0.23 47 1006.1
20260506114550 65 112 4.3 9.6 0.00 0.24 0.23 65 1005.7
20260506113047 64 102 3.5 8.7 0.00 0.24 0.23 65 1005.5
20260506111545 64 120 4.3 7.8 0.00 0.24 0.23 66 1005.5
20260506110043 64 86 6.1 10.4 0.00 0.24 0.23 66 1005.8
20260506104541 65 20 0.0 3.5 0.00 0.24 0.23 66 1006.1
20260506103046 63 262 1.7 5.2 0.00 0.24 0.23 65 1006.4
20260506101532 63 116 0.0 6.1 0.00 0.24 0.23 71 1006.6
20260506100030 61 200 2.6 7.8 0.00 0.24 0.23 72 1006.9
20260506094528 61 85 1.7 4.3 0.00 0.24 0.23 72 1007.1
20260506093024 60 114 1.7 4.3 0.00 0.24 0.23 74 1007.4
20260506091522 59 113 2.6 4.3 0.00 0.24 0.23 74 1007.5
20260506090026 59 101 0.0 2.6 0.00 0.24 0.23 81 1007.6
20260506084514 56 258 0.0 1.7 0.00 0.24 0.23 87 1007.7
20260506083013 55 9 0.0 0.9 0.02 0.24 0.23 93 1007.8
20260506081508 53 270 0.0 0.9 0.02 0.24 0.23 94 1008.0
20260506073004 52 256 0.0 0.9 0.00 0.23 0.21 94 1008.0
20260506071504 52 257 0.0 0.9 0.00 0.23 0.21 93 1008.0
20260506061602 51 132 0.9 4.3 0.03 0.24 0.21 95 1008.1
20260506050108 51 116 1.7 7.8 0.11 0.17 0.15 94 1008.0
20260506044553 51 110 2.6 5.2 0.08 0.20 0.11 94 1008.0
20260506043059 51 142 1.7 7.0 0.06 0.17 0.09 94 1007.9
20260506041551 51 132 1.7 5.2 0.02 0.14 0.06 94 1008.0